This is the latest recevied weather packets stored in our database for station/object K5MGY. If no packets are shown the sender has not sent any weather packets the latest 1 day(s).
| Time | Temp. | Humidity | Pressure | Rain* | Wind** | Luminosity | Snow |
|---|---|---|---|---|---|---|---|
| 1777985297 | 21.11° C | 86% | 1028.7 hPa | 0 mm | 1.34 m/s, 189° | 33 W/m² | - |
| 1777984994 | 21.11° C | 86% | 1028.6 hPa | 0 mm | 0.45 m/s, 192° | 29 W/m² | - |
| 1777984690 | 21.11° C | 87% | 1028.5 hPa | 0 mm | 1.34 m/s, 206° | 28 W/m² | - |
| 1777984387 | 21.11° C | 87% | 1028.8 hPa | 0 mm | 1.79 m/s, 170° | 21 W/m² | - |
| 1777984083 | 21.11° C | 87% | 1028.5 hPa | 0 mm | 1.34 m/s, 151° | 18 W/m² | - |
| 1777983781 | 21.11° C | 87% | 1028.6 hPa | 0 mm | 0.45 m/s, 165° | 19 W/m² | - |
| 1777983477 | 21.11° C | 87% | 1028.8 hPa | 0 mm | 0.45 m/s, 183° | 17 W/m² | - |
| 1777983174 | 21.11° C | 87% | 1028.4 hPa | 0 mm | 0.45 m/s, 245° | 13 W/m² | - |
| 1777982870 | 21.11° C | 87% | 1028.2 hPa | 0 mm | 0.89 m/s, 191° | 11 W/m² | - |
| 1777982566 | 21.11° C | 87% | 1028.2 hPa | 0 mm | 0.45 m/s, 203° | 9 W/m² | - |
| 1777982265 | 20.56° C | 88% | 1028.6 hPa | 0 mm | 1.34 m/s, 256° | 7 W/m² | - |
| 1777981963 | 20.56° C | 88% | 1028.3 hPa | 0 mm | 0.45 m/s, 185° | 4 W/m² | - |
| 1777981660 | 20.56° C | 88% | 1028.3 hPa | 0 mm | 0 m/s | 2 W/m² | - |
| 1777981359 | 20.56° C | 88% | 1028.4 hPa | 0 mm | 0.89 m/s, 278° | 1 W/m² | - |
| 1777981053 | 20.56° C | 87% | 1028.3 hPa | 0 mm | 0.89 m/s, 177° | 1 W/m² | - |
| 1777980749 | 20.56° C | 87% | 1028.3 hPa | 0 mm | 0.89 m/s, 146° | 0 W/m² | - |
| 1777980445 | 21.11° C | 87% | 1028.4 hPa | 0 mm | 0.89 m/s, 171° | 0 W/m² | - |
| 1777980143 | 21.11° C | 87% | 1028.4 hPa | 0 mm | 0.89 m/s, 200° | 0 W/m² | - |
| 1777979843 | 21.11° C | 87% | 1028.2 hPa | 0 mm | 1.34 m/s, 154° | 0 W/m² | - |
| 1777979539 | 21.11° C | 87% | 1028.1 hPa | 0 mm | 0 m/s | 0 W/m² | - |
| 1777979235 | 21.11° C | 87% | 1028 hPa | 0 mm | 1.34 m/s, 120° | 0 W/m² | - |
| 1777978933 | 21.11° C | 86% | 1028 hPa | 0 mm | 0.89 m/s, 172° | 0 W/m² | - |
| 1777978629 | 21.11° C | 86% | 1028 hPa | 0 mm | 0.89 m/s, 221° | 0 W/m² | - |
| 1777978325 | 21.11° C | 86% | 1028 hPa | 0 mm | 0.45 m/s, 141° | 0 W/m² | - |
| 1777978022 | 21.11° C | 86% | 1028.1 hPa | 0 mm | 0.89 m/s, 212° | 0 W/m² | - |
* Rain latest hour (hover to see other rain measurements)
** Current wind speed in m/s (hover to see current wind gust speed)